FW9892 Weather Reports


time (UTC)temp
C
wind
direction
speed
KPH
gust
KPH
rain 1hr
cm
rain 24hr
cm
rain mn
cm
humidity
%
barometer
mb
20260506203139 8 0 0.0 6.4 0.00 1.22 0.81 86 1011.7
20260506201554 8 0 0.0 3.2 0.00 1.22 0.81 86 1011.4
20260506200054 8 0 0.0 0.0 0.00 1.22 0.81 83 1011.5
20260506194556 8 0 0.0 0.0 0.00 1.45 0.81 82 1011.2
20260506193052 9 0 0.0 6.4 0.00 1.45 0.81 81 1011.1
20260506191605 9 0 0.0 8.0 0.00 1.45 0.81 80 1010.9
20260506190054 10 0 0.0 8.0 0.00 1.45 0.81 79 1010.7
20260506184559 10 360 0.0 8.0 0.00 1.50 0.81 77 1010.6
20260506183057 11 0 0.0 12.9 0.00 1.50 0.81 74 1010.5
20260506181613 11 0 0.0 6.4 0.00 1.50 0.81 73 1010.2
20260506174607 11 360 0.0 8.0 0.00 1.50 0.81 73 1009.8
20260506173055 12 0 0.0 12.9 0.00 1.50 0.81 74 1009.6
20260506171606 12 360 4.8 14.5 0.00 1.50 0.81 74 1009.6
20260506170054 12 360 0.0 12.9 0.00 1.50 0.81 75 1009.3
20260506164558 13 360 1.6 11.3 0.00 1.50 0.81 72 1009.2
20260506163121 13 0 0.0 4.8 0.00 1.50 0.81 72 1009.2
20260506161554 13 0 0.0 6.4 0.00 1.50 0.81 73 1009.1
20260506160056 13 0 0.0 8.0 0.00 1.50 0.81 73 1009.1
20260506154556 13 0 0.0 0.0 0.00 1.50 0.81 76 1009.1
20260506153055 13 0 0.0 0.0 0.00 1.50 0.81 76 1009.1
20260506151556 13 0 0.0 1.6 0.00 1.50 0.81 75 1009.0
20260506150052 13 0 0.0 1.6 0.00 1.50 0.81 76 1009.0
20260506144556 13 0 0.0 0.0 0.00 1.50 0.81 76 1008.8
20260506143057 12 0 0.0 12.9 0.00 1.50 0.81 76 1008.8
20260506141549 13 0 0.0 6.4 0.00 1.50 0.81 77 1008.9
20260506134600 12 0 0.0 0.0 0.00 1.50 0.81 83 1009.0
20260506133056 12 0 0.0 1.6 0.00 1.50 0.81 81 1009.1
20260506131606 12 0 0.0 6.4 0.00 1.50 0.81 82 1009.1
20260506130054 12 0 0.0 0.0 0.00 1.50 0.81 85 1008.9
20260506124548 12 0 0.0 6.4 0.00 1.50 0.81 87 1008.9
20260506123102 11 0 0.0 6.4 0.00 1.50 0.81 86 1008.7
20260506121604 12 5 0.0 6.4 0.00 1.50 0.81 84 1008.6
20260506120050 11 0 0.0 6.4 0.00 1.50 0.81 90 1008.7
20260506114550 11 0 0.0 6.4 0.00 1.50 0.81 87 1008.6
20260506113050 11 0 0.0 6.4 0.00 1.50 0.81 88 1008.6
20260506111552 11 0 0.0 12.9 0.00 1.50 0.81 91 1008.6
20260506104551 10 5 0.0 8.0 0.00 1.50 0.81 94 1008.8
20260506103048 10 0 0.0 8.0 0.00 1.50 0.81 95 1008.9
20260506101618 10 15 1.6 12.9 0.00 1.50 0.81 94 1008.9
20260506100051 10 0 0.0 14.5 0.00 1.50 0.81 95 1008.6
20260506094557 9 0 1.6 9.7 0.00 1.52 0.81 95 1008.6
20260506093051 9 0 1.6 12.9 0.00 1.52 0.81 95 1008.4
20260506091553 9 0 0.0 8.0 0.00 1.52 0.81 95 1008.3
20260506090104 8 360 1.6 14.5 0.00 1.52 0.81 95 1008.2
20260506084603 8 0 1.6 12.9 0.00 1.52 0.81 95 1008.1
20260506083054 8 0 3.2 16.1 0.00 1.50 0.79 95 1007.9
20260506081557 8 0 4.8 16.1 0.00 1.50 0.79 95 1007.9
20260506073056 8 348 3.2 14.5 0.00 1.50 0.76 95 1007.6
20260506071553 8 0 1.6 9.7 0.03 1.50 0.76 95 1007.6
20260506061552 8 0 0.0 8.0 0.05 1.47 0.74 95 1007.4
20260506050114 7 0 0.0 8.0 0.03 1.40 0.66 95 1007.2
20260506044551 7 0 1.6 12.9 0.05 1.40 0.66 95 1007.2
20260506043055 7 360 1.6 16.1 0.03 1.40 0.64 95 1007.2
20260506041558 7 0 0.0 12.9 0.03 1.37 0.64 95 1007.2
20260506040051 7 0 1.6 14.5 0.03 1.37 0.64 95 1007.2
20260506034558 7 0 1.6 11.3 0.03 1.35 0.61 95 1007.2
20260506033048 7 355 1.6 12.9 0.05 1.35 0.61 95 1007.4
20260506031552 8 355 1.6 9.7 0.05 1.32 0.58 95 1007.3
20260506030052 8 0 1.6 16.1 0.08 1.32 0.58 94 1007.4
20260506024550 8 0 0.0 11.3 0.08 1.30 0.56 94 1007.5
20260506023106 8 0 0.0 14.5 0.08 1.30 0.56 95 1007.6
20260506021549 8 0 0.0 8.0 0.08 1.27 0.53 95 1007.7
20260506020055 8 0 0.0 8.0 0.08 1.24 0.51 94 1007.6
20260506014553 8 0 0.0 9.7 0.13 1.24 0.48 95 1007.6
20260506013055 8 360 1.6 12.9 0.13 1.22 0.46 94 1007.6
20260506011551 8 0 1.6 9.7 0.13 1.19 0.43 95 1007.8
20260506010052 9 360 3.2 14.5 0.15 1.17 0.41 95 1007.7
20260506004557 9 0 0.0 8.0 0.10 1.12 0.36 95 1007.8
20260506003052 9 345 1.6 12.9 0.13 1.09 0.33 94 1007.8
20260506001557 9 0 0.0 14.5 0.10 1.04 0.28 94 1007.9
20260506000100 9 0 3.2 14.5 0.08 1.02 0.25 94 1008.1
20260505234552 9 0 1.6 16.1 0.10 0.99 0.23 94 1008.2
20260505233057 9 360 3.2 14.5 0.08 0.94 0.18 95 1008.2
20260505231551 9 360 1.6 12.9 0.10 0.94 0.18 94 1008.3
20260505230118 9 360 1.6 16.1 0.15 0.91 0.15 94 1008.4
20260505224556 9 360 3.2 14.5 0.18 0.86 0.10 94 1008.4
20260505223054 9 360 3.2 14.5 0.23 0.84 0.08 94 1008.5
20260505221559 9 360 4.8 14.5 0.23 0.81 0.05 94 1008.6
20260505220059 9 0 1.6 14.5 0.20 0.74 0.00 94 1008.7
20260505214553 9 360 3.2 12.9 0.20 0.69 0.69 94 1008.8
20260505213055 9 360 6.4 16.1 0.18 0.61 0.61 94 1009.0
20260505211601 9 360 6.4 16.1 0.18 0.56 0.56 94 1008.9
20260505204551 10 0 3.2 12.9 0.18 0.46 0.46 94 1008.9